Terug naar catalogus

STARLINK-35007

ActiefCommunicatieSSO
NORAD 65287·PAYLOAD·🇺🇸 United States

Gelanceerd Aug 22, 2025 vanaf Vandenberg Space Force Base

Loading…

Volgende Passages (komende 24 uur)

TLE

VersSource: CelesTrak SupGP

Epoch: Sep 14, 2026, 14:23 UTC

1 65287C 25184Q   26257.59979167  .00051824  00000+0  16109-2 0  2578
2 65287  97.2834 305.6603 0000946 102.5482 159.0269 15.33371662    17

Volg STARLINK-35007 in realtime met AllMySat

Download on the App Store